Temp
-6 -5 -5 -4 -3 -2 -0 -1 -1 -1 1 0 3 4 3 4 3 4 4 5 5 5 5 6 5 4 4 3 3 4 3 3 3 3 4 4 4 4 4 5 5 5 5 5
-5 -4 -3 -2 -3 -1 -1 -0 -1 -0 1 3 4 4 4 3 4 4 4 5 5 5 6 6 5 4 4 4 4 3 3 2 2 3 3 4 4 4 4 5 5 5 5 5
-4 -3 -4 -3 -3 -2 -1 -1 1 -1 -1 3 4 4 3 3 4 4 4 5 5 5 5 6 6 5 5 4 4 3 3 2 2 2 3 4 4 4 5 5 5 5 5 5
-5 -3 -1 -1 -2 -0 -1 -2 -2 -1 -0 3 4 2 3 3 3 4 4 5 5 5 5 5 5 5 5 4 4 3 3 2 2 3 4 4 4 4 4 4 4 5 5 5
-3 -0 -1 -1 -2 -2 0 -1 -2 -1 -0 3 3 4 3 3 3 3 4 5 5 5 5 5 5 5 5 4 4 3 3 3 3 4 4 4 4 3 4 4 4 4 5 5
-1 -1 -1 -2 -1 -2 -0 -1 -1 -1 -1 0 3 4 3 2 3 4 4 5 5 5 5 5 5 5 4 4 4 3 3 3 3 3 3 3 4 3 4 4 4 4 4 4
-2 -2 -1 -1 -1 -1 0 -1 -2 -1 -1 -1 2 4 4 4 4 5 5 5 5 5 5 5 6 6 5 5 5 4 4 3 3 3 3 3 3 3 4 4 4 4 4 4
-2 -3 -2 -1 -1 -0 -0 0 0 -3 -2 -1 2 2 4 4 4 4 5 5 6 6 6 6 5 5 5 5 5 5 4 4 4 4 4 3 3 3 3 3 3 3 4 4
-2 -2 -2 -2 -1 -0 0 1 2 2 2 2 2 3 4 4 5 4 4 5 5 5 5 6 5 5 5 5 5 5 5 4 4 4 3 3 3 3 3 3 3 3 3 3
-2 -2 -1 -1 -1 -0 0 2 2 3 -1 0 1 3 4 4 5 5 4 5 5 5 5 5 5 5 5 5 5 5 5 5 5 4 4 4 4 3 3 3 3 3 2 2
-1 -0 -1 -1 -0 0 1 1 2 3 3 -2 -2 2 5 5 5 6 6 5 5 5 5 6 6 6 5 5 5 5 5 5 5 5 5 4 4 3 2 1 1 1 1 1
-0 -0 -0 -0 -0 0 1 1 1 2 2 3 3 3 5 5 5 5 6 6 5 5 5 6 5 5 5 5 4 5 5 4 4 4 4 4 4 3 2 2 2 1 1 1
0 -0 -0 0 0 -0 0 1 1 1 1 2 0 3 5 5 5 5 5 6 6 5 5 5 5 5 5 4 4 4 4 4 4 4 4 4 4 3 3 3 2 2 2 2
-0 -1 -1 -1 0 1 1 1 1 1 0 1 1 3 4 5 5 5 5 5 5 5 5 5 5 5 5 4 4 4 4 4 4 4 4 4 3 4 4 3 3 2 2 2
-1 -1 -1 -0 0 0 1 1 1 1 1 1 1 1 3 3 4 4 5 4 4 4 4 4 4 4 4 4 4 4 4 4 4 4 4 4 4 3 3 3 2 0 2 2
-2 -2 -1 -0 -0 -0 -0 0 1 1 1 1 1 2 3 2 2 3 3 3 3 3 3 3 3 4 4 4 4 4 4 4 4 4 4 4 4 4 3 2 1 1 2 2
-3 -3 -3 -2 -1 -1 -2 0 0 1 1 1 1 2 2 3 3 2 2 2 2 3 3 3 3 3 3 3 3 3 3 3 3 3 4 4 4 4 4 3 3 2 2 1
-4 -3 -3 -3 -3 -5 -0 -0 0 1 1 1 1 1 2 2 3 2 2 3 3 3 3 3 2 3 3 3 3 3 3 3 3 3 3 3 3 3 3 4 3 3 3 2
-5 -5 -5 -4 -5 -2 -1 -1 0 0 1 1 1 1 1 1 1 1 1 2 2 2 3 3 3 3 3 3 3 3 3 3 3 3 3 2 2 2 2 2 2 2 2 2
-6 -6 -7 -6 -5 -5 -1 -0 -0 -1 -0 1 1 1 1 0 -0 1 1 1 1 2 2 2 2 2 2 3 3 3 2 2 2 2 1 1 1 2 2 2 2 2 2 2
-7 -8 -8 -8 -6 -5 -3 -2 -2 -3 0 1 0 0 0 -0 -1 -1 -0 -0 -0 0 0 1 1 1 1 1 1 2 2 1 1 1 1 1 1 1 1 1 1 1 1 1
-5 -6 -6 -9 -8 -7 -3 -3 -3 -2 -2 -1 -1 -1 -1 -1 -2 -2 -2 -1 -1 -1 -1 -1 -1 -1 -1 -1 -0 -0 -0 -1 -0 -0 -0 -0 -1 -1 -1 -1 -1 -1 -1 -1
-7 -5 -5 -5 -4 -3 -4 -3 -3 -3 -4 -4 -3 -3 -3 -3 -3 -3 -2 -2 -2 -2 -1 -1 -1 -1 -1 -1 -1 -2 -2 -2 -2 -2 -2 -2 -2 -2 -2 -2 -3 -3 -3 -3
-7 -7 -7 -7 -5 -5 -5 -6 -5 -4 -4 -5 -4 -4 -4 -4 -3 -3 -3 -3 -3 -3 -3 -3 -3 -3 -3 -2 -2 -2 -3 -3 -3 -3 -3 -3 -3 -3 -4 -4 -4 -4 -4 -4
-8 -8 -7 -7 -5 -6 -6 -6 -6 -6 -6 -6 -6 -5 -5 -5 -4 -4 -4 -4 -4 -3 -3 -4 -4 -3 -3 -4 -4 -4 -4 -4 -4 -4 -5 -5 -5 -5 -5 -5 -5 -6 -6 -6
-7 -7 -7 -7 -6 -6 -6 -6 -6 -6 -6 -6 -6 -7 -6 -5 -5 -5 -5 -5 -5 -5 -4 -4 -4 -5 -5 -5 -5 -5 -5 -6 -6 -6 -6 -6 -6 -7 -7 -7 -7 -7 -7 -7
Height
3004 3009 3014 3018 3024 3027 3035 3041 3046 3054 3064 3070 3073 3077 3081 3086 3093 3098 3103 3108 3112 3115 3118 3121 3124 3128 3131 3136 3140 3142 3147 3149 3151 3158 3162 3165 3167 3169 3172 3173 3175 3176 3177 3179
3006 3009 3017 3020 3026 3032 3035 3044 3049 3056 3057 3072 3072 3077 3081 3086 3092 3097 3102 3106 3109 3112 3115 3117 3120 3124 3128 3133 3136 3139 3144 3146 3151 3156 3160 3163 3165 3167 3169 3171 3173 3175 3175 3177
3007 3015 3024 3028 3029 3035 3040 3046 3049 3058 3062 3068 3071 3077 3078 3084 3090 3094 3099 3104 3107 3110 3113 3115 3117 3121 3124 3129 3134 3138 3142 3143 3147 3153 3157 3160 3162 3164 3167 3169 3171 3173 3173 3175
3015 3021 3028 3029 3033 3040 3043 3051 3050 3059 3062 3064 3069 3073 3076 3082 3086 3090 3095 3099 3104 3108 3110 3113 3115 3117 3121 3126 3131 3136 3139 3141 3147 3151 3154 3158 3161 3163 3164 3166 3167 3169 3171 3172
3021 3025 3030 3029 3034 3042 3047 3050 3052 3060 3064 3066 3068 3073 3075 3080 3083 3086 3091 3097 3100 3104 3108 3111 3113 3116 3119 3123 3128 3132 3136 3140 3144 3147 3151 3154 3157 3159 3161 3163 3164 3166 3167 3168
3023 3026 3028 3030 3034 3042 3046 3053 3058 3061 3065 3068 3066 3070 3070 3074 3077 3085 3089 3094 3097 3101 3105 3109 3111 3113 3117 3120 3124 3128 3132 3136 3139 3143 3146 3149 3152 3155 3157 3159 3161 3162 3163 3165
3028 3030 3029 3032 3037 3043 3045 3053 3058 3067 3065 3064 3067 3070 3067 3071 3075 3080 3083 3088 3094 3097 3101 3104 3107 3109 3112 3116 3120 3124 3128 3131 3135 3138 3142 3145 3148 3150 3152 3154 3156 3157 3159 3160
3029 3036 3035 3034 3036 3036 3044 3048 3047 3058 3061 3061 3065 3064 3064 3066 3071 3077 3082 3087 3090 3092 3096 3099 3103 3107 3109 3113 3116 3119 3122 3127 3130 3134 3137 3140 3142 3144 3146 3148 3151 3151 3154 3155
3033 3035 3035 3035 3037 3040 3041 3043 3047 3051 3056 3058 3059 3060 3061 3062 3066 3071 3075 3079 3082 3087 3091 3095 3098 3103 3105 3108 3111 3115 3119 3122 3125 3129 3132 3134 3136 3138 3139 3141 3143 3145 3146 3149
3033 3036 3034 3035 3037 3038 3040 3045 3046 3045 3053 3056 3052 3054 3051 3053 3057 3063 3067 3071 3076 3082 3087 3091 3095 3097 3100 3103 3106 3110 3113 3116 3119 3121 3124 3127 3129 3131 3133 3134 3136 3138 3140 3141
3028 3031 3035 3034 3034 3037 3040 3039 3041 3041 3040 3043 3051 3039 3039 3046 3052 3056 3061 3066 3071 3076 3080 3084 3088 3091 3094 3097 3100 3102 3106 3110 3113 3116 3118 3120 3122 3123 3125 3128 3130 3132 3134 3136
3027 3027 3030 3032 3034 3035 3035 3037 3041 3039 3039 3040 3040 3034 3038 3044 3049 3052 3056 3060 3065 3070 3074 3077 3081 3085 3088 3092 3095 3097 3099 3103 3106 3109 3112 3115 3116 3117 3119 3121 3123 3125 3129 3130
3025 3026 3029 3033 3035 3032 3032 3035 3038 3038 3039 3038 3038 3034 3035 3038 3043 3048 3051 3054 3058 3063 3066 3070 3074 3078 3082 3085 3089 3092 3094 3096 3099 3101 3104 3107 3110 3112 3113 3114 3116 3117 3119 3121
3024 3023 3022 3022 3023 3026 3028 3031 3034 3035 3034 3033 3033 3035 3036 3037 3039 3042 3045 3049 3053 3056 3059 3063 3067 3071 3074 3078 3082 3086 3089 3092 3093 3095 3097 3099 3102 3104 3106 3107 3109 3110 3112 3112
3023 3022 3021 3021 3021 3021 3022 3024 3027 3027 3027 3028 3027 3031 3032 3035 3036 3039 3042 3044 3047 3051 3054 3057 3061 3065 3068 3072 3076 3079 3082 3084 3086 3088 3090 3092 3093 3095 3097 3099 3100 3101 3104 3105
3017 3018 3019 3019 3020 3020 3019 3019 3018 3019 3022 3023 3025 3026 3032 3032 3034 3035 3038 3041 3044 3047 3050 3053 3055 3058 3061 3064 3067 3070 3072 3075 3077 3079 3081 3083 3085 3086 3088 3089 3090 3093 3095 3095
3013 3013 3014 3013 3015 3015 3011 3009 3012 3012 3013 3015 3018 3016 3028 3029 3031 3033 3035 3037 3039 3040 3042 3045 3048 3051 3053 3056 3059 3061 3063 3065 3067 3069 3072 3074 3075 3077 3078 3079 3080 3082 3083 3084
3007 3008 3009 3008 3010 3009 2999 2999 3003 3006 3007 3009 3010 3012 3017 3020 3024 3025 3028 3030 3033 3034 3037 3039 3042 3044 3046 3049 3051 3052 3055 3057 3059 3061 3062 3064 3065 3066 3067 3068 3069 3069 3070 3071
3001 3003 3003 3004 3001 2996 2993 2994 2995 2997 2996 3001 3002 3004 3007 3009 3012 3013 3017 3020 3023 3025 3027 3029 3032 3034 3036 3038 3040 3042 3045 3047 3048 3050 3051 3053 3054 3056 3057 3057 3058 3058 3059 3060
2993 2996 3000 2999 2996 2992 2987 2989 2989 2990 2987 2988 2990 2992 2995 2999 3000 3004 3007 3009 3012 3015 3017 3019 3020 3022 3024 3026 3029 3032 3034 3036 3037 3039 3040 3042 3044 3046 3047 3048 3048 3048 3048 3048
2987 2989 2991 2993 2991 2985 2984 2986 2986 2987 2985 2982 2982 2983 2985 2987 2991 2995 2999 3001 3003 3005 3007 3009 3012 3014 3016 3017 3018 3019 3022 3024 3027 3030 3031 3033 3034 3035 3036 3037 3037 3037 3037 3037
2983 2985 2985 2988 2989 2983 2979 2980 2981 2980 2978 2979 2979 2979 2979 2980 2982 2984 2987 2990 2992 2994 2996 2999 3001 3004 3005 3008 3010 3013 3014 3016 3017 3018 3019 3021 3022 3023 3024 3025 3025 3026 3026 3025
2980 2978 2979 2980 2977 2975 2975 2976 2975 2974 2974 2975 2976 2976 2977 2977 2978 2979 2980 2981 2983 2985 2986 2989 2991 2993 2994 2997 2999 3001 3003 3005 3007 3008 3010 3011 3012 3012 3013 3014 3015 3015 3016 3015
2971 2973 2970 2971 2968 2969 2970 2971 2971 2971 2970 2971 2971 2972 2972 2973 2974 2974 2975 2976 2977 2978 2979 2980 2981 2983 2985 2987 2989 2991 2993 2994 2996 2998 2999 3000 3001 3002 3003 3004 3005 3005 3005 3005
2966 2965 2963 2960 2958 2960 2961 2961 2961 2961 2961 2963 2964 2964 2964 2965 2966 2967 2968 2969 2970 2970 2971 2973 2974 2975 2977 2978 2980 2982 2983 2985 2987 2988 2989 2990 2992 2993 2994 2995 2996 2995 2995 2995
2956 2955 2953 2950 2952 2950 2949 2949 2949 2949 2950 2952 2953 2954 2956 2957 2958 2958 2959 2961 2962 2963 2964 2965 2966 2967 2968 2970 2972 2974 2975 2977 2978 2980 2981 2982 2983 2984 2985 2986 2987 2987 2987 2986
Wind_Speed
17 18 32 18 26 13 35 19 24 27 30 38 26 38 35 33 31 32 29 22 21 22 17 15 19 26 27 29 29 30 31 32 25 21 18 18 17 15 13 11 10 9 9 10
21 23 27 16 17 20 13 26 22 26 31 30 30 34 32 29 28 29 30 26 21 23 20 17 20 25 29 31 30 28 28 25 30 21 18 18 16 15 14 13 12 11 11 11
23 25 18 13 12 19 17 16 33 31 24 26 34 28 30 29 27 27 27 27 24 20 20 17 20 22 27 31 31 28 24 18 27 19 20 19 18 18 16 14 12 12 13 14
25 30 13 16 18 18 9 6 22 29 22 15 29 11 26 27 30 29 27 26 25 23 20 16 18 22 25 28 26 27 23 21 21 24 22 20 17 16 15 14 14 15 15 17
30 29 11 16 19 25 15 11 21 17 18 21 24 10 20 23 30 31 31 26 25 23 21 16 15 20 24 26 28 26 24 23 25 24 23 21 20 18 17 17 17 17 17 18
29 15 11 19 15 24 19 23 16 4 24 3 20 12 12 28 32 31 31 28 26 25 24 20 17 18 23 25 26 28 27 25 26 24 22 21 20 20 20 20 20 19 19 19
16 12 19 28 29 28 25 25 5 4 4 4 16 19 7 27 27 29 35 31 29 26 27 23 20 20 22 25 26 27 28 28 28 26 23 22 22 23 23 23 22 22 22 20
4 10 16 24 21 23 32 26 8 6 7 5 11 8 22 13 19 24 28 29 28 29 27 27 24 19 19 20 24 27 28 28 28 27 24 25 25 24 25 26 24 26 24 23
4 11 11 18 18 32 38 21 8 11 10 6 8 14 16 20 21 23 31 35 35 33 31 28 30 24 20 22 23 23 25 26 27 26 26 27 27 27 27 28 27 29 28 26
12 11 13 16 22 16 30 23 8 9 7 6 12 20 20 32 30 28 31 40 38 34 32 30 27 27 25 24 23 24 24 25 26 27 28 28 28 28 29 31 27 27 28 28
11 12 16 19 15 19 20 29 8 10 5 4 4 21 41 35 35 32 23 32 38 38 34 32 34 32 31 29 27 27 26 24 23 24 25 26 27 28 28 29 27 27 26 28
5 8 13 24 13 16 18 19 25 8 3 4 6 8 31 31 37 31 28 24 34 38 37 38 37 37 35 34 30 30 29 30 26 24 25 25 25 23 24 24 25 29 29 31
9 5 8 11 22 21 21 26 20 15 13 13 6 3 15 34 32 38 34 31 30 38 41 40 40 39 38 39 35 34 31 31 31 28 28 28 29 28 28 28 27 26 26 25
15 11 10 12 7 25 27 30 28 21 17 18 20 10 3 21 37 36 37 37 33 36 41 44 44 41 38 38 40 35 35 34 34 34 33 33 34 32 32 33 33 32 33 33
19 15 23 18 20 13 18 32 36 35 35 27 23 19 18 7 15 35 39 35 35 35 39 42 43 41 39 39 42 40 36 34 33 34 35 37 37 37 37 38 37 33 42 41
22 14 17 23 23 24 23 25 29 41 43 42 40 38 21 17 7 9 19 28 29 30 38 38 42 44 43 44 44 43 41 40 40 39 40 41 40 40 40 41 44 42 44 45
21 19 17 12 17 17 23 38 34 34 39 46 43 50 40 32 25 18 15 14 13 12 27 35 34 39 42 45 48 48 46 43 41 39 37 36 37 38 40 42 45 48 52 52
21 23 22 12 12 5 20 19 19 37 38 37 38 38 38 41 41 41 35 27 27 25 19 18 19 22 27 34 36 35 35 36 36 37 38 38 40 41 42 43 43 44 45 46
25 21 11 8 10 24 22 20 25 28 36 33 36 38 40 37 36 39 41 42 40 39 39 37 34 32 30 30 32 34 35 35 36 36 37 37 37 35 34 33 33 35 36 38
28 26 21 13 6 7 10 20 32 36 38 35 31 31 28 36 42 42 39 40 39 40 39 39 37 36 37 38 36 35 34 32 32 30 29 28 29 30 32 33 34 35 35 36
16 25 30 26 13 12 22 13 12 13 18 18 24 31 31 29 30 30 35 39 38 39 40 38 36 36 35 33 35 37 36 36 36 36 36 37 38 38 38 39 39 40 40 40
10 8 13 16 10 13 19 19 22 21 17 14 15 15 17 22 26 27 28 30 32 35 36 37 37 38 38 38 39 40 40 40 40 41 41 41 41 41 40 40 41 41 41 41
11 19 17 16 11 13 4 7 12 13 17 20 15 11 11 13 15 15 17 21 26 30 31 34 36 37 41 43 43 43 42 41 41 42 42 42 41 40 39 39 39 39 39 38
23 25 28 28 34 32 32 29 29 19 15 14 15 20 18 17 18 17 18 19 22 22 24 26 29 31 33 35 36 37 38 38 37 37 37 37 37 36 36 36 36 36 36 36
25 24 28 31 29 31 31 31 33 34 37 35 30 28 30 28 25 24 22 20 22 24 24 25 25 27 27 28 28 29 30 30 31 30 30 30 30 30 31 31 32 32 32 31
33 32 36 29 25 27 27 24 24 26 29 32 34 34 32 28 27 29 30 29 28 27 26 25 25 25 25 24 25 25 25 25 26 26 26 25 25 24 24 25 25 25 25 25
Wind_Direction
156 174 171 179 183 180 191 156 164 184 178 171 186 181 184 187 187 189 187 184 186 190 194 203 200 197 197 201 205 205 204 193 194 203 209 210 201 199 202 212 219 220 220 211
144 166 166 145 131 175 170 180 185 178 177 192 189 185 184 188 189 191 194 202 197 193 198 204 197 202 202 202 205 209 208 225 211 202 210 213 206 205 207 215 227 232 234 225
139 156 173 219 189 148 146 178 199 197 201 197 182 184 188 192 188 192 203 211 204 202 206 206 202 204 205 203 209 210 212 212 192 204 214 214 210 213 218 225 233 240 239 236
125 142 146 186 193 182 128 223 201 181 191 180 186 182 189 197 193 193 194 193 194 194 194 197 200 202 204 205 206 201 210 202 202 213 214 216 219 227 231 235 241 245 240 240
132 146 165 169 186 170 207 190 151 172 197 183 196 190 195 196 202 199 197 194 190 194 197 202 199 202 205 207 211 211 211 210 213 215 218 218 221 229 237 244 250 251 249 248
137 159 158 149 147 154 171 161 155 176 196 269 188 191 189 207 207 200 201 199 195 193 193 201 198 199 207 208 212 214 215 212 218 219 221 225 230 237 243 248 254 255 254 253
125 145 159 159 156 172 177 178 147 153 203 202 183 202 216 211 213 210 205 202 204 198 199 209 217 205 204 209 211 216 219 219 222 224 226 231 237 244 247 251 254 256 258 257
88 133 141 173 154 171 170 165 167 159 173 186 204 221 218 197 208 213 209 211 212 206 203 212 213 215 208 213 216 218 222 225 227 227 229 233 238 245 252 254 254 255 256 254
127 152 151 179 165 160 171 191 156 121 121 111 196 226 214 221 213 213 213 207 209 210 212 215 214 220 216 217 215 223 225 226 230 234 234 236 238 242 248 252 253 255 255 256
146 155 164 175 178 170 189 168 174 184 150 181 212 204 212 208 208 210 209 206 211 211 212 215 218 216 223 217 216 219 224 227 227 227 229 236 239 244 247 249 248 250 252 255
159 162 174 177 188 193 190 207 226 200 201 155 133 234 220 224 213 212 213 212 213 210 208 210 211 222 227 226 222 212 216 224 230 233 232 235 239 244 243 241 244 251 248 252
171 182 188 194 190 207 221 209 218 217 216 221 211 257 222 217 216 210 213 213 211 214 215 213 213 223 228 226 223 221 219 227 227 236 243 243 242 245 250 257 249 246 239 246
208 201 167 211 223 226 225 221 218 228 277 248 198 257 216 212 207 219 221 217 214 216 217 220 221 228 230 226 226 228 228 229 231 231 238 244 244 245 250 257 260 262 265 264
215 217 222 218 217 218 227 224 225 233 252 250 257 261 234 226 216 213 220 225 223 221 221 223 224 228 231 232 225 230 238 236 237 236 238 243 247 249 251 256 258 259 260 263
216 230 222 227 230 226 240 239 235 233 239 245 249 262 253 279 240 223 225 227 226 228 230 230 231 234 235 232 232 241 238 241 244 249 249 250 254 255 255 256 257 258 262 268
228 235 237 237 236 243 247 239 237 237 240 245 251 251 234 257 270 222 225 230 232 231 234 235 237 238 239 237 239 241 244 249 250 249 252 255 255 254 255 255 256 256 256 257
236 237 243 248 250 248 254 243 234 238 238 240 244 245 243 239 246 245 245 243 240 234 237 238 243 243 242 243 245 248 251 252 251 250 249 252 256 258 258 257 257 255 254 256
238 240 242 250 255 246 249 257 238 239 245 246 251 252 247 247 246 252 251 243 243 247 240 241 246 247 248 249 250 250 248 249 251 254 256 259 259 258 259 259 258 259 260 260
238 234 226 217 228 260 250 257 255 254 261 253 249 253 252 253 250 248 248 250 250 251 256 258 254 251 247 245 244 246 249 251 253 253 254 254 255 255 255 256 258 260 262 264
228 226 222 210 223 221 262 254 258 261 264 266 263 258 253 243 243 247 248 249 249 250 252 251 248 245 241 240 241 243 243 243 244 244 242 242 248 254 256 259 260 260 262 263
216 224 223 228 246 253 243 242 253 226 253 265 267 258 257 256 252 250 248 251 251 250 250 249 247 247 246 241 234 229 230 235 240 244 249 253 256 259 261 261 261 261 262 263
237 233 228 219 230 262 269 252 243 250 248 253 265 267 253 249 253 251 248 247 250 250 248 249 248 248 248 246 245 248 250 250 250 250 252 254 256 259 260 260 260 261 262 264
249 246 252 238 245 269 285 306 305 273 262 261 262 256 256 257 256 255 253 252 250 247 245 246 249 250 250 251 252 252 253 255 256 257 258 259 260 262 263 262 263 264 264 265
266 261 254 260 260 264 266 264 269 274 274 276 270 273 279 273 263 263 266 262 259 255 253 252 252 253 253 254 254 254 255 256 257 258 259 259 260 260 261 262 262 263 264 265
270 273 275 276 280 278 275 271 269 260 261 268 271 269 277 277 271 267 270 261 257 259 259 255 252 252 252 252 251 252 252 253 254 255 255 256 257 258 260 261 263 263 264 266
275 279 278 277 296 285 276 266 267 261 254 253 257 262 263 266 265 263 264 264 264 262 260 258 255 251 250 249 248 247 248 249 251 252 254 256 258 259 260 261 262 264 267 269